Location: Fort Worth, Tx
(32.7431°N, 97.3695°W)
Time: 17:18:58
(UTC-04:00)

ISS - Visible Passes

Search period start: 22 May 2017 00:00
Search period end: 01 June 2017 00:00
Orbit: 402 x 408 km, 51.6° (Epoch: 22 May)

Date Brightness Start Highest point End Pass type
(mag) Time Alt. Az. Time Alt. Az. Time Alt. Az.
22 May -1.9 22:08:24 10° SSE 22:09:51 12° SE 22:09:52 12° SE visible
22 May -0.9 23:42:53 10° WSW 23:43:04 11° WSW 23:43:04 11° WSW visible
23 May -1.2 06:14:28 10° NNW 06:17:11 23° NE 06:19:53 10° E visible
23 May -4.0 22:50:42 10° SW 22:53:59 84° SE 22:57:17 10° NE visible
24 May -0.2 00:29:49 10° NW 00:30:52 11° NNW 00:31:54 10° N visible
24 May -0.5 05:23:09 10° N 05:24:57 14° NNE 05:26:46 10° ENE visible
24 May -3.2 21:58:59 10° SSW 22:02:01 35° SE 22:05:03 10° ENE visible
24 May -0.8 23:36:11 10° W 23:38:34 18° NW 23:40:58 10° NNE visible
25 May -3.4 06:06:25 10° NW 06:09:40 63° NE 06:12:53 10° SE visible
25 May -1.9 22:43:22 10° WSW 22:46:22 33° NW 22:49:24 10° NNE visible
26 May -1.8 05:14:36 10° NNW 05:17:33 30° NE 05:20:28 10° ESE visible
26 May -2.3 06:51:33 10° W 06:53:51 18° SW 06:56:09 10° S visible
27 May -0.5 04:27:38 10° ENE 04:27:38 10° ENE 04:23:03 10° N visible
27 May -3.5 06:01:08 33° W 06:01:55 39° SW 06:04:59 10° SSE visible
27 May -0.6 22:36:53 10° WNW 22:38:54 15° NNW 22:40:55 10° N visible
